User: anonymous   Login
Location: Laguna de la Cañada del Gallo
(40.3974°N, 5.2096°W)
Time: 12:46:04
(UTC+00:00)
Language:

Sich 1 Rocket - Orbit

View from above orbital plane
View from above orbital plane
View from above satellite
View from above satellite

Ground track
Ground track

The orbit data is extracted from the following two-line orbital elements,

1 23659U 95046C   24174.21435163  .00000538  00000-0  68814-4 0  9999
2 23659  82.5303  87.3881 0026403 128.4068  24.3947 14.79316346553104
Epoch (UTC): 22 June 2024 05:08:39
Eccentricity: 0.0026403
inclination: 82.5303°
perigee height: 613 km
apogee height: 650 km
right ascension of ascending node: 87.3881°
argument of perigee: 128.4068°
revolutions per day: 14.79316346
mean anomaly at epoch: 24.3947°
orbit number at epoch: 55310

The dashed part of the orbit path shows where the satellite is in the earth's shadow,  

DLR